Location: Springfield
(37.2150°N, 93.2980°W)
Time: 19:54:54
(UTC-06:00)

N. Korean satellite - Pass Details

Date: 26 October 2019
Orbit: 456 x 506 km, 97.2° (Epoch: 12 November)

Event Time Altitude Azimuth Distance (km) Brightness Sun altitude
Rises 18:48:03 0° 185° (S) 2,460 10.4 -5.8°
Reaches altitude 10° 18:50:10 10° 194° (SSW) 1,594 9.5 -6.2°
Maximum altitude 18:53:20 35° 262° (W) 763 8.4 -6.8°
Drops below altitude 10° 18:56:33 10° 330° (NNW) 1,623 9.5 -7.5°
Sets 18:58:45 0° 339° (NNW) 2,511 10.3 -7.9°
